Location: Zagreb
(45.8000°N, 16.0000°E)
Time: 14:17:27
(UTC+02:00)

Transit 2A - Pass Details

Date: 12 August 2022
Orbit: 601 x 956 km, 66.7° (Epoch: 25 September)

Event Time Altitude Azimuth Distance (km) Brightness Sun altitude
Rises 13:28:35 0° 240° (WSW) 3,113 9.5 58.6°
Reaches altitude 10° 13:31:16 10° 251° (WSW) 2,138 8.7 58.4°
Maximum altitude 13:35:30 30° 313° (NW) 1,165 7.2 58.3°
Drops below altitude 10° 13:39:30 10° 15° (NNE) 2,006 8.0 58.1°
Sets 13:41:56 0° 27° (NNE) 2,888 8.7 57.9°
